OpenBCM V2.0.3 (Linux)

Packet Radio Mailbox

IZ3LSV

[San Dona' di P. JN]

 Login: GUEST





  
I0OJJ  > AMSAT    01.06.26 02:34l 329 Lines 15514 Bytes #999 (0) @ WW
BID : 214_IR0EQ
Subj: 2Line Orbital Elements
Path: IZ3LSV<I0OJJ<IR0EQ
Sent: 260601/0027z @:IR0EQ.ITA.EU [Rome] $:214_IR0EQ

>From i0ojj%ir0eq.ita.eu@i0ojj.ampr.org Mon Jun  1 02:31:50 2026
Received: from i0ojj.ampr.org by i0ojj.ampr.org (JNOS2.0q.1) with SMTP
	id AA17061300 ; Mon, 01 Jun 2026 02:31:50 +0200
Message-Id: <214_IR0EQ@i0ojj.bbs>
>From: i0ojj@ir0eq.ita.eu
X-JNOS-User-Port: Telnet   (i0ojj @ 44.27.18.9)  ->   Sending message

>From i0ojj@rgate.ampr.org Mon Jun  1 02:27:50 2026
Received: from rgate.ampr.org by rgate.ampr.org (JNOS2.0q.1) with SMTP
	id AA2632 ; Mon, 01 Jun 2026 02:27:50 +0200
Received: by rgate.ampr.org with SMTP
	id AA2629 ; Mon, 01 Jun 2026 02:27:02 +0200
Message-Id: <2630@rgate.ampr.org>
>From: i0ojj@rgate.ampr.org

SB KEPS @ AMSAT  $ORB26152.1
2Line Orbital Elements 26152.AMSAT

QST de W1STR

AMSAT Orbital Elements for Amateur Satellites in TLE Format
>From Orbital Analysis Office
New England Sci-Tech STEM Education Center
Natick MA June 01, 2026
To all radio amateurs


These element sets describe the orbits of various satellites 
in use by the amateur radio community. For details see:
www.amsat.org/keplerian-elements-formats/

A daily update of element sets is available at:
www.amsat.org/tle/daily-bulletin.txt
or without bulletin text:
www.amsat.org/tle/dailytle.txt


AO-07
1 07530U 74089B   26151.87724747 -.00000037  00000-0  61641-4 0  9997
2 07530 101.9902 164.9537 0012412 160.6582 319.4910 12.53697841358472
UO-11
1 14781U 84021B   26151.84381454  .00001562  00000-0  16465-3 0  9997
2 14781  97.8049 117.6026 0006298 231.0153 129.0505 14.90739432254693
AO-27
1 22825U 93061C   26151.70758424  .00000138  00000-0  69403-4 0  9998
2 22825  98.6884 219.1264 0009112 142.9886 217.1927 14.30937365704641
FO-29
1 24278U 96046B   26151.52776657 -.00000019  00000-0  13937-4 0  9996
2 24278  98.5254   2.6810 0350540 139.5579 223.2190 13.53273531470914
GO-32
1 25397U 98043D   26151.55726736  .00000083  00000-0  56032-4 0  9997
2 25397  99.0064 143.8970 0000222 249.0772 111.0382 14.24424897448967
ISS
1 25544U 98067A   26151.80735655  .00010267  00000-0  19064-3 0  9993
2 25544  51.6334  21.1879 0007243 119.3370 240.8343 15.49527917569219
NO-44
1 26931U 01043C   26151.74561505  .00000186  00000-0  10044-3 0  9994
2 26931  67.0512 286.7962 0006134 264.0263  96.0140 14.31949518288093
SO-50
1 27607U 02058C   26151.56674164  .00001246  00000-0  16384-3 0  9999
2 27607  64.5507 180.4074 0075547 265.5110  93.7363 14.83007931261997
CO-55
1 27844U 03031E   26151.52883250  .00000373  00000-0  18054-3 0  9994
2 27844  98.6737 160.2974 0008545 229.1241 130.9199 14.24324648189300
RS-22
1 27939U 03042A   26151.85567674  .00001632  00000-0  25973-3 0  9993
2 27939  98.3462 335.7540 0010550 326.7294 144.7647 14.73437739213147
CO-65
1 32785U 08021C   26151.87411854  .00006892  00000-0  43608-3 0  9998
2 32785  97.8269 132.9564 0010863  86.1033 274.1437 15.09284208982733
CO-66
1 32791U 08021J   26151.48496513  .00022718  00000-0  73357-3 0  9996
2 32791  97.7509 148.5935 0003411  47.3209 312.8318 15.32128099984737
RS-30
1 32953U 08025A   26151.76141916  .00000030  00000-0  14554-3 0  9992
2 32953  82.5053   5.6600 0019560 350.4376   9.6329 12.43178606817657
SRMSAT
1 37841U 11058D   26151.41276956  .00000416  00000-0  82216-4 0  9997
2 37841  19.9700 161.0024 0011834  20.5360 123.9815 14.11571899755448
ZACUBE-1
1 39417U 13066B   26151.87618745  .00005323  00000-0  41419-3 0  9996
2 39417  97.8107 114.1247 0039955 305.5461  54.2040 15.01065870678282
Delfi-N3xt
1 39428U 13066N   26151.84666924  .00007647  00000-0  67020-3 0  9994
2 39428  97.8345  72.1750 0072953 260.9372  98.3588 14.94897421672185
GOMX-1
1 39430U 13066Q   26151.84310777  .00002956  00000-0  44644-3 0  9994
2 39430  97.6491 353.3380 0129841 129.5299 231.7469 14.69391493667510
LO-74
1 39440U 13066AA  26151.85180419  .00005248  00000-0  48567-3 0  9999
2 39440  97.8899 100.7639 0059346  81.8636 278.9310 14.93616985674556
AO-73
1 39444U 13066AE  26151.48308065  .00008909  00000-0  55578-3 0  9998
2 39444  97.8261 122.5836 0034615 260.0925  99.6394 15.09262198677147
DTUSAT-2
1 40030U 14033W   26151.52678074  .00009334  00000-0  50648-3 0  9997
2 40030  98.0858 148.1995 0006217 297.6271  62.4328 15.14783575650163
LILACSAT-2
1 40908U 15049K   26151.88680686  .00022944  00000-0  39796-3 0  9993
2 40908  97.4659 188.1142 0005565 324.0945  35.9932 15.50866975593220
Horyu-4
1 41340U 16012D   26151.49045598  .00286137  00000-0  11319-2 0  9995
2 41340  30.9853 200.6012 0002341 164.6254 195.4476 15.84916098568153
Lapan A3
1 41603U 16040E   26151.87322120  .00004353  00000-0  13866-3 0  9997
2 41603  97.1481 148.5569 0012179  77.0898 283.1704 15.32993868552318
CAS-2T
1 41847U 16066G   26151.68677551  .00001856  00000-0  26839-3 0  9994
2 41847  98.3823 227.6108 0342098 179.4433 180.7209 14.44636447502414
TechnoSat
1 42829U 17042E   26151.82592287  .00003912  00000-0  27992-3 0  9994
2 42829  97.4271 310.1100 0018868 144.9806 215.2666 15.04852549484249
AO-91
1 43017U 17073E   26151.86818263  .00011065  00000-0  48249-3 0  9993
2 43017  97.4723  19.4199 0152151  25.6242 335.2429 15.12407117462928
S-Net D
1 43186U 18014G   26151.70319676  .00006431  00000-0  33312-3 0  9999
2 43186  97.5380  56.5981 0010055  78.8446 281.3917 15.16500905456264
S-Net B
1 43187U 18014H   26151.71432823  .00006193  00000-0  32113-3 0  9994
2 43187  97.5387  56.5952 0010665  74.6975 285.5436 15.16471868456265
S-Net A
1 43188U 18014J   26151.70216101  .00006495  00000-0  33629-3 0  9991
2 43188  97.5397  56.7888 0010528  75.2761 284.9638 15.16508390456263
S-Net C
1 43189U 18014K   26151.71811940  .00005826  00000-0  30231-3 0  9998
2 43189  97.5415  56.8767 0011853  68.7924 291.4574 15.16463093454813
Ten-Koh
1 43677U 18084G   26151.47893992  .00004187  00000-0  31698-3 0  9994
2 43677  98.0762 343.1374 0009819 170.0387 190.1033 15.02860203413652
PO-101
1 43678U 18084H   26151.83093481  .00003693  00000-0  29891-3 0  9993
2 43678  98.1145 347.3323 0011800 225.0063 135.0204 15.00368988413765
QO-100
1 43700U 18090A   26151.72028868  .00000157  00000-0  00000+0 0  9990
2 43700   0.0188 325.4532 0001867 132.7139  76.1435  1.00271024 27513
MinXSS-2
1 43758U 18099A   26151.84933337  .00039864  00000-0  82278-3 0  9999
2 43758  97.4545 227.6691 0006111 327.4459  32.6413 15.45740394411602
AO-95
1 43770U 18099N   26151.69017637  .00014101  00000-0  54469-3 0  9990
2 43770  97.4390 212.0006 0009680  54.7178 305.4965 15.26325861410704
SNUSat 2
1 43782U 18099AA  26151.69667860  .00010664  00000-0  47519-3 0  9990
2 43782  97.4066 205.3358 0009931   3.3326 356.7974 15.21566928410521
SnugLite
1 43784U 18099AC  26151.82665692  .00014607  00000-0  55691-3 0  9999
2 43784  97.3878 206.2709 0002597  22.6374 337.4979 15.26790315410829
ITASat 1
1 43786U 18099AE  26151.68418913  .00008919  00000-0  43038-3 0  9998
2 43786  97.4038 203.5269 0013772  55.7765 304.4772 15.18826322410407
EAGLET 1
1 43790U 18099AJ  26151.58365581  .00005010  00000-0  28852-3 0  9990
2 43790  97.4237 201.6926 0012292  49.9270 310.3036 15.12801109409827
ESEO
1 43792U 18099AL  26151.68297066  .00001434  00000-0  10731-3 0  9998
2 43792  97.3975 189.7787 0013123  37.6079 322.6062 15.04191047409327
JO-97
1 43803U 18099AX  26151.65088492  .00021474  00000-0  67301-3 0  9990
2 43803  97.4138 214.4335 0004511 342.6448  17.4640 15.33085152411096
Suomi 100
1 43804U 18099AY  26151.64046402  .00016598  00000-0  60872-3 0  9992
2 43804  97.4197 212.0988 0009120 347.2086  12.8920 15.28011333410891
ISAT
1 43879U 18111D   26151.71726948  .00094685  00000-0  10645-2 0  9992
2 43879  97.5895  85.7090 0004406  52.7035 307.4624 15.62280756408595
UWE-4
1 43880U 18111E   26151.77071862  .00039665  00000-0  83831-3 0  9993
2 43880  97.5862  79.4189 0008640  40.6994 319.4898 15.45025081408241
Sparrow
1 43881U 18111F   26151.77263507  .00141402  00000-0  11731-2 0  9995
2 43881  97.6133  91.1135 0005591  93.8057 266.3843 15.69747782408793
Prox-1
1 44339U 19036A   26151.52035678  .00016537  00000-0  16353-2 0  9995
2 44339  23.9944 225.5551 0005696 193.1693 166.8658 14.90187022370980
Taurus 1
1 44530U 19059C   26151.79290800  .00008463  00000-0  13580-2 0  9990
2 44530  98.6399 315.6074 0008212  12.0870 348.0530 14.71905370356238
TO-108
1 44881U 19093C   26151.82225336  .00001494  00000-0  17469-3 0  9991
2 44881  97.7537 224.4531 0014558 136.2941 223.9430 14.86490284348986
RS-44
1 44909U 19096E   26151.66522451  .00000021  00000-0  36739-4 0  9992
2 44909  82.5221 350.6864 0217415 182.7370 177.2560 12.79748591300237
SALSAT
1 46495U 20068K   26151.79180847  .00009700  00000-0  34116-3 0  9997
2 46495  97.8847 153.8617 0009741  11.4476 348.6983 15.29539807312857
CSS (TIANHE-1)
1 48274U 21035A   26151.78484294  .00016317  00000-0  19891-3 0  9996
2 48274  41.4694  61.7684 0010358 317.7293  42.2747 15.60062111290602
CUTE
1 49263U 21088D   26151.26080787  .00409312  00000-0  16175-2 0  9997
2 49263  97.4204 248.9934 0005804 260.8864  99.1750 15.85766127259861
TeikyoSat 4
1 49396U 21102B   26151.61445810  .00002586  00000-0  16516-3 0  9994
2 49396  97.3676 181.7422 0011818 358.9194   1.2008 15.09445999250221
Z-Sat
1 49399U 21102E   26151.85243692  .00004453  00000-0  22086-3 0  9991
2 49399  97.3328 187.6717 0015162 308.1094  51.8772 15.18128959250966
KOSEN 1
1 49402U 21102H   26151.55944197  .00009165  00000-0  35218-3 0  9997
2 49402  97.3194 194.0415 0011941 264.6141  95.3735 15.26584533251482
HO-113
1 50466U 21131B   26151.87985204  .00000535  00000-0  17905-3 0  9995
2 50466  98.4977 244.3582 0004987 135.5531 224.6059 14.41340438232766
SNUGLITE 2
1 52899U 22065F   26151.35823747  .00001363  00000-0  26728-3 0  9993
2 52899  98.2181 296.2210 0008755  79.5745 280.6443 14.64313334208535
